Time,TemperatureF,DewpointF,PressureIn,WindDirection,WindDirectionDegrees,WindSpeedMPH,WindSpeedGustMPH,Humidity,HourlyPrecipIn,Conditions,Clouds,dailyrainin,SoftwareType,DateUTC
2013-04-12 00:03:00,40.2,31.9,29.71,SW,236,0.0,0.0,72,0.00,,,0.04,Wunderground v.1.15,2013-04-12 05:03:00,
2013-04-12 00:13:00,40.0,31.4,29.71,SW,236,0.0,0.0,71,0.00,,,0.04,Wunderground v.1.15,2013-04-12 05:13:00,
2013-04-12 00:23:00,39.9,31.3,29.71,SW,236,0.0,0.0,71,0.00,,,0.04,Wunderground v.1.15,2013-04-12 05:23:00,
2013-04-12 00:33:00,39.8,31.5,29.71,SW,236,0.0,0.0,72,0.00,,,0.04,Wunderground v.1.15,2013-04-12 05:33:00,
2013-04-12 00:43:00,39.8,31.5,29.71,SW,236,0.0,0.0,72,0.00,,,0.04,Wunderground v.1.15,2013-04-12 05:43:00,
2013-04-12 00:53:00,39.6,31.3,29.71,SW,236,0.0,0.0,72,0.00,,,0.04,Wunderground v.1.15,2013-04-12 05:53:00,
2013-04-12 01:03:00,39.5,31.6,29.71,SW,236,0.0,0.0,73,0.00,,,0.04,Wunderground v.1.15,2013-04-12 06:03:00,
2013-04-12 01:13:00,39.5,31.2,29.71,SW,236,0.0,0.0,72,0.00,,,0.04,Wunderground v.1.15,2013-04-12 06:13:00,
2013-04-12 01:23:00,39.6,31.7,29.71,SW,236,0.0,0.0,73,0.00,,,0.04,Wunderground v.1.15,2013-04-12 06:23:00,
2013-04-12 01:33:00,39.6,31.7,29.70,SW,236,0.0,0.0,73,0.00,,,0.04,Wunderground v.1.15,2013-04-12 06:33:00,
2013-04-12 01:43:00,39.5,31.9,29.70,SW,236,0.0,0.0,74,0.00,,,0.04,Wunderground v.1.15,2013-04-12 06:43:00,
2013-04-12 01:53:00,39.5,31.6,29.70,SW,236,0.0,0.0,73,0.00,,,0.04,Wunderground v.1.15,2013-04-12 06:53:00,
2013-04-12 02:03:00,39.5,31.9,29.69,SW,236,0.0,0.0,74,0.00,,,0.04,Wunderground v.1.15,2013-04-12 07:03:00,
2013-04-12 02:13:00,39.5,31.9,29.69,SW,236,0.0,0.0,74,0.00,,,0.04,Wunderground v.1.15,2013-04-12 07:13:00,
2013-04-12 02:23:00,39.6,32.0,29.69,SW,236,0.0,0.0,74,0.00,,,0.04,Wunderground v.1.15,2013-04-12 07:23:00,
2013-04-12 02:33:00,39.6,32.3,29.70,SW,236,0.0,0.0,75,0.00,,,0.00,Wunderground v.1.15,2013-04-12 07:33:00,
2013-04-12 02:43:00,39.8,32.5,29.69,SW,236,0.0,0.0,75,0.00,,,0.00,Wunderground v.1.15,2013-04-12 07:43:00,
2013-04-12 02:53:00,39.8,32.5,29.69,SW,236,0.0,0.0,75,0.00,,,0.00,Wunderground v.1.15,2013-04-12 07:53:00,
2013-04-12 03:03:00,39.6,32.7,29.69,SW,236,0.0,0.0,76,0.00,,,0.00,Wunderground v.1.15,2013-04-12 08:03:00,
2013-04-12 03:13:00,39.6,32.7,29.69,SW,236,0.0,0.0,76,0.00,,,0.00,Wunderground v.1.15,2013-04-12 08:13:00,
2013-04-12 03:23:00,39.6,32.3,29.68,SW,236,0.0,0.0,75,0.00,,,0.00,Wunderground v.1.15,2013-04-12 08:23:00,
2013-04-12 03:33:00,39.6,32.3,29.68,SW,236,0.0,0.0,75,0.00,,,0.00,Wunderground v.1.15,2013-04-12 08:33:00,
2013-04-12 03:43:00,39.6,32.7,29.69,SW,236,0.0,0.0,76,0.00,,,0.00,Wunderground v.1.15,2013-04-12 08:43:00,
2013-04-12 03:53:00,39.6,32.7,29.69,SW,236,0.0,0.0,76,0.00,,,0.00,Wunderground v.1.15,2013-04-12 08:53:00,
2013-04-12 04:03:00,39.6,33.0,29.68,SW,236,0.0,0.0,77,0.00,,,0.00,Wunderground v.1.15,2013-04-12 09:03:00,
2013-04-12 04:13:00,39.5,32.9,29.69,SW,236,0.0,0.0,77,0.00,,,0.00,Wunderground v.1.15,2013-04-12 09:13:00,
2013-04-12 04:23:00,39.5,32.9,29.69,SW,236,0.0,0.0,77,0.00,,,0.00,Wunderground v.1.15,2013-04-12 09:23:00,
2013-04-12 04:33:00,39.6,33.0,29.69,SW,236,0.0,0.0,77,0.00,,,0.00,Wunderground v.1.15,2013-04-12 09:33:00,
2013-04-12 04:43:00,39.6,33.0,29.69,SW,236,0.0,0.0,77,0.00,,,0.00,Wunderground v.1.15,2013-04-12 09:43:00,
2013-04-12 04:53:00,39.5,32.9,29.68,SW,236,0.0,0.0,77,0.00,,,0.00,Wunderground v.1.15,2013-04-12 09:53:00,
2013-04-12 05:03:00,39.5,32.9,29.68,SW,236,0.0,0.0,77,0.00,,,0.00,Wunderground v.1.15,2013-04-12 10:03:00,
2013-04-12 05:13:00,39.5,33.2,29.68,SW,236,0.0,0.0,78,0.00,,,0.00,Wunderground v.1.15,2013-04-12 10:13:00,
2013-04-12 05:23:00,39.5,32.9,29.68,SW,236,0.0,0.0,77,0.00,,,0.00,Wunderground v.1.15,2013-04-12 10:23:00,
2013-04-12 05:33:00,39.5,33.2,29.68,SW,236,0.0,0.0,78,0.00,,,0.00,Wunderground v.1.15,2013-04-12 10:33:00,
2013-04-12 05:43:00,39.5,33.2,29.68,SW,236,0.0,0.0,78,0.00,,,0.00,Wunderground v.1.15,2013-04-12 10:43:00,
2013-04-12 05:53:00,39.5,33.2,29.68,SW,236,0.0,0.0,78,0.00,,,0.00,Wunderground v.1.15,2013-04-12 10:53:00,
2013-04-12 06:03:00,39.5,33.2,29.68,SW,236,0.0,0.0,78,0.00,,,0.00,Wunderground v.1.15,2013-04-12 11:03:00,
2013-04-12 06:13:00,39.6,33.3,29.69,SW,236,0.0,0.0,78,0.00,,,0.00,Wunderground v.1.15,2013-04-12 11:13:00,
2013-04-12 06:23:00,39.8,33.5,29.69,SW,236,0.0,0.0,78,0.00,,,0.00,Wunderground v.1.15,2013-04-12 11:23:00,
2013-04-12 06:33:00,39.8,33.5,29.70,SW,236,0.0,0.0,78,0.00,,,0.00,Wunderground v.1.15,2013-04-12 11:33:00,
2013-04-12 06:43:00,39.9,33.6,29.70,SW,236,0.0,0.0,78,0.00,,,0.00,Wunderground v.1.15,2013-04-12 11:43:00,
2013-04-12 06:53:00,39.9,33.6,29.71,SW,236,0.0,0.0,78,0.00,,,0.00,Wunderground v.1.15,2013-04-12 11:53:00,
2013-04-12 07:03:00,39.9,33.6,29.71,SW,236,0.0,0.0,78,0.00,,,0.00,Wunderground v.1.15,2013-04-12 12:03:00,
2013-04-12 07:13:00,40.0,33.7,29.72,SW,236,0.0,0.0,78,0.00,,,0.00,Wunderground v.1.15,2013-04-12 12:13:00,
2013-04-12 07:23:00,40.2,33.9,29.72,SW,236,0.0,0.0,78,0.00,,,0.00,Wunderground v.1.15,2013-04-12 12:23:00,
2013-04-12 07:33:00,40.2,33.9,29.72,SW,236,0.0,0.0,78,0.00,,,0.00,Wunderground v.1.15,2013-04-12 12:33:00,
2013-04-12 07:43:00,40.3,33.7,29.73,SW,236,0.0,0.0,77,0.00,,,0.00,Wunderground v.1.15,2013-04-12 12:43:00,
2013-04-12 07:58:00,40.5,33.9,29.73,SW,235,0.0,0.0,77,0.00,,,0.00,Wunderground v.1.15,2013-04-12 12:58:00,
2013-04-12 08:03:00,40.8,34.1,29.73,SW,235,0.0,0.0,77,0.00,,,0.00,Wunderground v.1.15,2013-04-12 13:03:00,
2013-04-12 08:13:00,41.1,34.1,29.73,SW,235,0.0,0.0,76,0.00,,,0.00,Wunderground v.1.15,2013-04-12 13:13:00,
2013-04-12 08:23:00,41.1,33.8,29.73,SW,236,0.0,0.0,75,0.00,,,0.00,Wunderground v.1.15,2013-04-12 13:23:00,
2013-04-12 08:33:00,41.2,34.2,29.73,SW,236,0.0,0.0,76,0.00,,,0.00,Wunderground v.1.15,2013-04-12 13:33:00,
2013-04-12 08:43:00,41.2,33.9,29.73,WSW,238,0.0,0.0,75,0.00,,,0.00,Wunderground v.1.15,2013-04-12 13:43:00,
2013-04-12 08:53:00,41.5,34.2,29.73,WSW,237,0.0,0.0,75,0.00,,,0.00,Wunderground v.1.15,2013-04-12 13:53:00,
2013-04-12 09:03:00,41.6,33.9,29.73,WSW,237,0.0,0.0,74,0.00,,,0.00,Wunderground v.1.15,2013-04-12 14:03:00,
2013-04-12 09:13:00,41.9,34.2,29.74,WSW,237,0.0,0.0,74,0.00,,,0.00,Wunderground v.1.15,2013-04-12 14:13:00,
2013-04-12 09:23:00,41.9,33.5,29.74,WSW,237,0.0,0.0,72,0.00,,,0.00,Wunderground v.1.15,2013-04-12 14:23:00,
2013-04-12 09:33:00,41.8,33.4,29.74,WSW,237,0.0,0.0,72,0.00,,,0.00,Wunderground v.1.15,2013-04-12 14:33:00,
2013-04-12 09:43:00,41.8,33.4,29.74,WSW,238,0.0,0.0,72,0.00,,,0.00,Wunderground v.1.15,2013-04-12 14:43:00,
2013-04-12 09:53:00,41.8,33.4,29.74,WSW,238,0.0,0.0,72,0.00,,,0.00,Wunderground v.1.15,2013-04-12 14:53:00,
2013-04-12 10:03:00,42.1,33.7,29.75,WSW,238,0.0,0.0,72,0.00,,,0.00,Wunderground v.1.15,2013-04-12 15:03:00,
2013-04-12 10:13:00,42.5,34.1,29.75,WSW,254,0.0,0.0,72,0.00,,,0.00,Wunderground v.1.15,2013-04-12 15:13:00,
2013-04-12 10:23:00,42.8,33.7,29.75,WSW,252,0.0,0.0,70,0.00,,,0.00,Wunderground v.1.15,2013-04-12 15:23:00,
2013-04-12 10:33:00,42.8,34.4,29.76,WSW,246,0.0,0.0,72,0.00,,,0.00,Wunderground v.1.15,2013-04-12 15:33:00,
2013-04-12 10:43:00,43.1,34.0,29.76,WSW,247,0.0,0.0,70,0.00,,,0.00,Wunderground v.1.15,2013-04-12 15:43:00,
2013-04-12 10:53:00,43.5,35.1,29.77,WSW,245,0.0,0.0,72,0.00,,,0.00,Wunderground v.1.15,2013-04-12 15:53:00,
2013-04-12 11:03:00,43.5,35.4,29.77,WSW,245,0.0,0.0,73,0.00,,,0.00,Wunderground v.1.15,2013-04-12 16:03:00,
2013-04-12 11:13:00,43.2,35.1,29.78,WSW,246,0.0,0.0,73,0.00,,,0.00,Wunderground v.1.15,2013-04-12 16:13:00,
2013-04-12 11:23:00,43.6,35.5,29.78,WSW,242,0.0,0.0,73,0.00,,,0.00,Wunderground v.1.15,2013-04-12 16:23:00,
2013-04-12 11:33:00,43.9,35.5,29.78,WSW,243,0.0,0.0,72,0.00,,,0.00,Wunderground v.1.15,2013-04-12 16:33:00,
2013-04-12 11:43:00,43.5,35.4,29.79,WSW,254,0.0,0.0,73,0.00,,,0.00,Wunderground v.1.15,2013-04-12 16:43:00,
2013-04-12 11:53:00,43.2,35.5,29.79,WSW,246,0.0,0.0,74,0.00,,,0.00,Wunderground v.1.15,2013-04-12 16:53:00,
2013-04-12 12:03:00,43.2,35.1,29.79,WSW,246,0.0,0.0,73,0.00,,,0.00,Wunderground v.1.15,2013-04-12 17:03:00,
2013-04-12 12:13:00,43.3,34.9,29.79,WSW,242,0.0,0.0,72,0.00,,,0.00,Wunderground v.1.15,2013-04-12 17:13:00,
2013-04-12 12:23:00,43.6,35.2,29.80,WSW,238,0.0,0.0,72,0.00,,,0.00,Wunderground v.1.15,2013-04-12 17:23:00,
2013-04-12 12:33:00,43.9,35.8,29.80,WSW,242,0.0,0.0,73,0.00,,,0.00,Wunderground v.1.15,2013-04-12 17:33:00,
2013-04-12 12:43:00,43.9,35.5,29.80,WSW,240,0.0,0.0,72,0.00,,,0.00,Wunderground v.1.15,2013-04-12 17:43:00,
2013-04-12 12:58:00,43.3,34.9,29.82,WSW,244,0.0,0.0,72,0.00,,,0.00,Wunderground v.1.15,2013-04-12 17:58:00,
2013-04-12 13:03:00,43.2,35.1,29.82,WSW,242,0.0,0.0,73,0.00,,,0.00,Wunderground v.1.15,2013-04-12 18:03:00,
2013-04-12 13:13:00,43.3,35.6,29.82,WSW,242,0.0,0.0,74,0.00,,,0.00,Wunderground v.1.15,2013-04-12 18:13:00,
2013-04-12 14:28:00,44.1,34.9,29.84,West,260,0.0,0.0,70,0.00,,,0.00,Wunderground v.1.15,2013-04-12 19:28:00,
2013-04-12 14:33:00,43.8,35.0,29.85,WSW,252,0.0,0.0,71,0.00,,,0.00,Wunderground v.1.15,2013-04-12 19:33:00,
2013-04-12 14:38:00,43.6,35.2,29.85,WSW,246,0.0,0.0,72,0.00,,,0.00,Wunderground v.1.15,2013-04-12 19:38:00,
2013-04-12 14:47:00,43.5,35.4,29.85,WSW,248,0.0,0.0,73,0.00,,,0.00,Wunderground v.1.15,2013-04-12 19:47:00,
2013-04-12 14:53:00,43.8,35.4,29.85,WSW,242,0.0,0.0,72,0.00,,,0.00,Wunderground v.1.15,2013-04-12 19:53:00,
2013-04-12 15:03:00,43.8,35.7,29.86,WSW,242,0.0,0.0,73,0.00,,,0.00,Wunderground v.1.15,2013-04-12 20:03:00,
2013-04-12 15:13:00,44.2,35.7,29.86,WSW,248,0.0,0.0,72,0.00,,,0.00,Wunderground v.1.15,2013-04-12 20:13:00,
2013-04-12 15:23:00,44.1,35.6,29.86,WSW,244,0.0,0.0,72,0.00,,,0.00,Wunderground v.1.15,2013-04-12 20:23:00,
2013-04-12 15:33:00,43.6,34.8,29.86,WSW,244,0.0,0.0,71,0.00,,,0.00,Wunderground v.1.15,2013-04-12 20:33:00,
2013-04-12 15:43:00,44.1,34.9,29.87,WSW,253,0.0,0.0,70,0.00,,,0.00,Wunderground v.1.15,2013-04-12 20:43:00,
2013-04-12 15:53:00,43.8,35.0,29.87,WSW,242,0.0,0.0,71,0.00,,,0.00,Wunderground v.1.15,2013-04-12 20:53:00,
2013-04-12 16:03:00,43.9,35.5,29.87,WSW,245,0.0,0.0,72,0.00,,,0.00,Wunderground v.1.15,2013-04-12 21:03:00,
2013-04-12 16:13:00,44.5,36.0,29.87,SW,236,0.0,0.0,72,0.00,,,0.00,Wunderground v.1.15,2013-04-12 21:13:00,
2013-04-12 16:18:00,44.5,35.7,29.87,WSW,238,0.0,0.0,71,0.00,,,0.00,Wunderground v.1.15,2013-04-12 21:18:00,
2013-04-12 16:23:00,44.5,35.3,29.87,WSW,239,0.0,0.0,70,0.00,,,0.00,Wunderground v.1.15,2013-04-12 21:23:00,
2013-04-12 16:33:00,44.6,35.1,29.87,WSW,239,0.0,0.0,69,0.00,,,0.00,Wunderground v.1.15,2013-04-12 21:33:00,
2013-04-12 16:43:00,44.5,35.0,29.88,WSW,239,0.0,0.0,69,0.00,,,0.00,Wunderground v.1.15,2013-04-12 21:43:00,
2013-04-12 16:53:00,44.2,35.0,29.89,WSW,239,0.0,0.0,70,0.00,,,0.00,Wunderground v.1.15,2013-04-12 21:53:00,
2013-04-12 17:03:00,44.2,35.4,29.89,WSW,239,0.0,0.0,71,0.00,,,0.00,Wunderground v.1.15,2013-04-12 22:03:00,
2013-04-12 17:13:00,44.2,35.4,29.90,WSW,239,0.0,0.0,71,0.00,,,0.00,Wunderground v.1.15,2013-04-12 22:13:00,
2013-04-12 17:23:00,43.9,35.5,29.90,WSW,239,0.0,0.0,72,0.00,,,0.00,Wunderground v.1.15,2013-04-12 22:23:00,
2013-04-12 17:33:00,43.8,35.7,29.90,WSW,239,0.0,0.0,73,0.00,,,0.00,Wunderground v.1.15,2013-04-12 22:33:00,
2013-04-12 17:43:00,43.6,35.9,29.90,WSW,239,0.0,0.0,74,0.00,,,0.00,Wunderground v.1.15,2013-04-12 22:43:00,
2013-04-12 17:53:00,43.6,36.2,29.91,WSW,239,0.0,0.0,75,0.00,,,0.00,Wunderground v.1.15,2013-04-12 22:53:00,
2013-04-12 18:03:00,43.6,35.9,29.91,WSW,239,0.0,0.0,74,0.00,,,0.00,Wunderground v.1.15,2013-04-12 23:03:00,
2013-04-12 18:13:00,43.6,35.9,29.91,WSW,239,0.0,0.0,74,0.00,,,0.00,Wunderground v.1.15,2013-04-12 23:13:00,
2013-04-12 18:23:00,43.6,36.2,29.91,WSW,239,0.0,0.0,75,0.00,,,0.00,Wunderground v.1.15,2013-04-12 23:23:00,
2013-04-12 18:33:00,43.8,36.4,29.91,WSW,239,0.0,0.0,75,0.00,,,0.00,Wunderground v.1.15,2013-04-12 23:33:00,
2013-04-12 18:43:00,43.9,36.5,29.91,WSW,239,0.0,0.0,75,0.00,,,0.00,Wunderground v.1.15,2013-04-12 23:43:00,
2013-04-12 18:53:00,43.9,36.8,29.91,WSW,239,0.0,0.0,76,0.00,,,0.00,Wunderground v.1.15,2013-04-12 23:53:00,
2013-04-12 19:03:00,43.8,36.0,29.91,WSW,239,0.0,0.0,74,0.00,,,0.00,Wunderground v.1.15,2013-04-13 00:03:00,
2013-04-12 19:13:00,43.6,36.2,29.91,WSW,239,0.0,0.0,75,0.00,,,0.00,Wunderground v.1.15,2013-04-13 00:13:00,
2013-04-12 19:23:00,43.5,36.1,29.91,WSW,239,0.0,0.0,75,0.00,,,0.00,Wunderground v.1.15,2013-04-13 00:23:00,
2013-04-12 19:33:00,43.3,35.9,29.91,WSW,239,0.0,0.0,75,0.00,,,0.00,Wunderground v.1.15,2013-04-13 00:33:00,
2013-04-12 19:43:00,43.2,35.8,29.92,WSW,239,0.0,0.0,75,0.00,,,0.00,Wunderground v.1.15,2013-04-13 00:43:00,
2013-04-12 19:53:00,43.1,35.7,29.92,WSW,239,0.0,0.0,75,0.00,,,0.00,Wunderground v.1.15,2013-04-13 00:53:00,
2013-04-12 20:03:00,43.1,35.7,29.92,WSW,239,0.0,0.0,75,0.00,,,0.00,Wunderground v.1.15,2013-04-13 01:03:00,
2013-04-12 20:13:00,43.1,36.0,29.92,WSW,239,0.0,0.0,76,0.00,,,0.00,Wunderground v.1.15,2013-04-13 01:13:00,
2013-04-12 20:23:00,42.9,35.9,29.93,WSW,239,0.0,0.0,76,0.00,,,0.00,Wunderground v.1.15,2013-04-13 01:23:00,
2013-04-12 20:33:00,42.9,35.9,29.93,WSW,239,0.0,0.0,76,0.00,,,0.00,Wunderground v.1.15,2013-04-13 01:33:00,
2013-04-12 20:43:00,42.9,35.2,29.94,WSW,239,0.0,0.0,74,0.00,,,0.00,Wunderground v.1.15,2013-04-13 01:43:00,
2013-04-12 20:53:00,42.9,34.8,29.94,WSW,239,0.0,0.0,73,0.00,,,0.00,Wunderground v.1.15,2013-04-13 01:53:00,
2013-04-12 21:03:00,42.9,34.8,29.94,WSW,239,0.0,0.0,73,0.00,,,0.00,Wunderground v.1.15,2013-04-13 02:03:00,
2013-04-12 21:13:00,42.8,34.7,29.94,WSW,239,0.0,0.0,73,0.00,,,0.00,Wunderground v.1.15,2013-04-13 02:13:00,
2013-04-12 21:23:00,42.8,35.1,29.94,WSW,239,0.0,0.0,74,0.00,,,0.00,Wunderground v.1.15,2013-04-13 02:23:00,
2013-04-12 21:33:00,42.6,34.9,29.94,WSW,239,0.0,0.0,74,0.00,,,0.00,Wunderground v.1.15,2013-04-13 02:33:00,
2013-04-12 21:43:00,42.6,34.9,29.94,WSW,239,0.0,0.0,74,0.00,,,0.00,Wunderground v.1.15,2013-04-13 02:43:00,
2013-04-12 21:53:00,42.5,35.1,29.95,WSW,239,0.0,0.0,75,0.00,,,0.00,Wunderground v.1.15,2013-04-13 02:53:00,
2013-04-12 22:03:00,42.5,35.1,29.95,WSW,239,0.0,0.0,75,0.00,,,0.00,Wunderground v.1.15,2013-04-13 03:03:00,
2013-04-12 22:13:00,42.5,35.5,29.95,WSW,239,0.0,0.0,76,0.00,,,0.00,Wunderground v.1.15,2013-04-13 03:13:00,
2013-04-12 22:23:00,42.3,35.9,29.96,WSW,239,0.0,0.0,78,0.00,,,0.00,Wunderground v.1.15,2013-04-13 03:23:00,
2013-04-12 22:33:00,42.3,35.9,29.96,WSW,239,0.0,0.0,78,0.00,,,0.00,Wunderground v.1.15,2013-04-13 03:33:00,
2013-04-12 22:43:00,42.2,35.5,29.96,WSW,239,0.0,0.0,77,0.00,,,0.00,Wunderground v.1.15,2013-04-13 03:43:00,
2013-04-12 22:53:00,42.2,35.5,29.97,WSW,239,0.0,0.0,77,0.00,,,0.00,Wunderground v.1.15,2013-04-13 03:53:00,
2013-04-12 23:03:00,42.2,35.5,29.96,WSW,239,0.0,0.0,77,0.00,,,0.00,Wunderground v.1.15,2013-04-13 04:03:00,
2013-04-12 23:08:00,42.2,35.2,29.97,WSW,239,0.0,0.0,76,0.00,,,0.00,Wunderground v.1.15,2013-04-13 04:08:00,
2013-04-12 23:13:00,42.2,35.2,29.97,WSW,239,0.0,0.0,76,0.00,,,0.00,Wunderground v.1.15,2013-04-13 04:13:00,
2013-04-12 23:23:00,42.1,34.7,29.97,WSW,239,0.0,0.0,75,0.00,,,0.00,Wunderground v.1.15,2013-04-13 04:23:00,
2013-04-12 23:33:00,42.1,35.1,29.97,WSW,239,0.0,0.0,76,0.00,,,0.00,Wunderground v.1.15,2013-04-13 04:33:00,
2013-04-12 23:43:00,42.1,35.4,29.97,WSW,239,0.0,0.0,77,0.00,,,0.00,Wunderground v.1.15,2013-04-13 04:43:00,
2013-04-12 23:53:00,41.8,35.1,29.97,WSW,239,0.0,0.0,77,0.00,,,0.00,Wunderground v.1.15,2013-04-13 04:53:00,